Beaufort, NC

4:53 PM EDT on October 16, 2019 (GMT -0400)
Smith

Weather History for KMRH - May, 2019

Change the Weather History Date:

Friday, May 10, 2019

  Actual Average Record
Temperature  
Mean Temperature 72 °F -  
Max Temperature 79 °F 74 °F 91 °F (1964)
Min Temperature 64 °F 55 °F 42 °F (1977)
Cooling Degree Days 6    
Growing Degree Days 22 (Base 50)    
Moisture  
Dew Point 65 °F    
Average Humidity 72    
Maximum Humidity 93    
Minimum Humidity 60    
Precipitation  
Precipitation 0.00 in - - ()
Sea Level Pressure  
Sea Level Pressure 30.11 in    
Wind  
Wind Speed 7 mph (South)    
Max Wind Speed 14 mph    
Max Gust Speed -    
Visibility 10 miles    
Events      
Averages and records for this station are not official NWS values.
T = Trace of Precipitation, MM = Missing Value Source: NWS Daily Summary

Daily Weather History Graph

Daily Weather History Graph

Search for Another Location

Airport or City:

Astronomy

May. 10, 2019 Rise Set
Actual Time 6:07 AM EDT 7:58 PM EDT
Civil Twilight 5:40 AM EDT 8:26 PM EDT
Nautical Twilight 5:06 AM EDT 8:59 PM EDT
Astronomical Twilight 4:31 AM EDT 9:35 PM EDT
Moon 11:07 AM EDT (5/10) 12:47 AM EDT (5/10)
Length of Visible Light 14h 46m
Length of Day
13h 50m
Waxing Crescent, 35% of the Moon is Illuminated
May 10
Waxing Crescent
May 11
First Quarter
May 18
Full
May 26
Last Quarter
Jun 3
New

Hourly Weather History & Observations

Time (EDT) Temp. Dew Point Humidity Pressure Visibility Wind Dir Wind Speed Gust Speed Precip Events Conditions
12:58 AM 71.1 °F 63.0 °F 75% 30.15 in 10.0 mi SSE 4.6 mph - N/A   Clear
1:58 AM 71.1 °F 63.0 °F 75% 30.13 in 10.0 mi SSE 4.6 mph - N/A   Clear
2:58 AM 71.1 °F 63.0 °F 75% 30.12 in 10.0 mi SSE 3.5 mph - N/A   Clear
3:58 AM 68.0 °F 63.0 °F 84% 30.12 in 10.0 mi Calm Calm - N/A   Clear
4:58 AM 68.0 °F 63.0 °F 84% 30.11 in 10.0 mi SE 3.5 mph - N/A   Clear
5:58 AM 64.9 °F 63.0 °F 93% 30.12 in 10.0 mi Calm Calm - N/A   Mostly Cloudy
6:58 AM 71.1 °F 64.0 °F 78% 30.12 in 10.0 mi SE 6.9 mph - N/A   Scattered Clouds
7:58 AM 73.0 °F 66.0 °F 79% 30.12 in 10.0 mi SSE 6.9 mph - N/A   Scattered Clouds
8:28 AM 73.9 °F 64.9 °F 73% 30.12 in 10.0 mi South 8.1 mph - N/A   Mostly Cloudy
8:35 AM 75.0 °F 64.9 °F 71% 30.12 in 10.0 mi SSE 4.6 mph - N/A   Overcast
8:58 AM 75.9 °F 64.9 °F 69% 30.12 in 10.0 mi SSW 8.1 mph - N/A   Partly Cloudy
9:58 AM 75.9 °F 64.9 °F 69% 30.13 in 10.0 mi South 6.9 mph - N/A   Clear
10:58 AM 78.1 °F 64.0 °F 62% 30.14 in 10.0 mi WSW 10.4 mph - N/A   Partly Cloudy
11:58 AM 79.0 °F 64.0 °F 60% 30.13 in 10.0 mi SW 10.4 mph - N/A   Clear
12:58 PM 79.0 °F 64.0 °F 60% 30.13 in 10.0 mi SW 11.5 mph - N/A   Clear
1:58 PM 79.0 °F 66.0 °F 64% 30.12 in 10.0 mi South 12.7 mph - N/A   Clear
2:58 PM 79.0 °F 66.9 °F 66% 30.10 in 10.0 mi South 13.8 mph - N/A   Clear
3:58 PM 79.0 °F 64.9 °F 62% 30.09 in 10.0 mi SSW 11.5 mph - N/A   Clear
4:58 PM 78.1 °F 64.9 °F 64% 30.08 in 10.0 mi SSW 13.8 mph - N/A   Clear
5:58 PM 77.0 °F 64.9 °F 66% 30.08 in 10.0 mi SSW 12.7 mph - N/A   Clear
6:58 PM 75.9 °F 63.0 °F 64% 30.08 in 10.0 mi SSW 11.5 mph - N/A   Clear
8:58 PM 73.0 °F 64.9 °F 76% 30.08 in 10.0 mi South 8.1 mph - N/A   Clear
9:58 PM 73.0 °F 66.0 °F 79% 30.08 in 10.0 mi South 8.1 mph - N/A   Clear
10:58 PM 73.9 °F 66.0 °F 76% 30.09 in 10.0 mi South 10.4 mph - N/A   Clear
11:58 PM 73.9 °F 66.9 °F 79% 30.09 in 10.0 mi SSW 11.5 mph - N/A   Clear